Regional Weather Roundup
Issued by NWS

Home | Current Version | Previous Version | Text Only | Print | Product List | Glossary Off
Versions: 1 2 3 4 5 6 7 8 9 10 11 12 13 14 15 16 17 18 19 20 21 22 23 24 25 26 27 28 29 30 31 32 33 34 35 36 37 38 39 40 41 42 43 44 45 46 47 48 49 50

000
ASUS43 KDTX 020110
RWRMI
MICHIGAN HOURLY REGIONAL WEATHER ROUNDUP
NATIONAL WEATHER SERVICE DETROIT/PONTIAC MI
900 PM EDT FRI AUG 01 2014

NOTE: "FAIR" INDICATES FEW OR NO CLOUDS BELOW 12,000 FEET WITH NO
SIGNIFICANT WEATHER AND/OR OBSTRUCTION TO VISIBILITY.

MIZ047>049-052>055-059>063-066>070-074>076-081>083-020200-
SOUTHEAST LOWER MICHIGAN

CITY           SKY/WX    TMP DP  RH WIND       PRES   REMARKS
ADRIAN         PTCLDY    71  65  81 CALM      30.10S
ALMA           MOCLDY    68  56  65 SW5       30.10F
ANN ARBOR      MOCLDY    70  62  76 CALM      30.09R
BAD AXE        CLOUDY    68  65  89 NE3       30.11R
DETROIT CITY   PTCLDY    79  58  48 S3        30.08R
DETROIT        CLOUDY    74  62  66 S5        30.09R
FLINT          CLOUDY    69  59  70 CALM      30.10R
GROSSE ILE     MOCLDY    72  66  83 CALM      30.08R
HILLSDALE      MOCLDY    71  61  71 CALM      30.12S
HOWELL         CLOUDY    67  56  68 W3        30.10F

CITY           SKY/WX    TMP DP  RH WIND       PRES   REMARKS
JACKSON        MOCLDY    69  58  67 CALM      30.11S
LAMBERTVILLE   PTCLDY    70  63  78 CALM      30.10S
LANSING        CLOUDY    64  58  80 S6        30.08F
LAPEER         NOT AVBL
MASON          CLOUDY    64  62  92 CALM      30.11S
MONROE         PTCLDY    70  66  88 CALM      30.08S
MT. CLEMENS    PTCLDY    69  64  82 N1        30.08R
PONTIAC        CLOUDY    73  60  63 N3        30.10R
PORT HOPE        N/A     69  64  84 SE8       30.10R
PORT HURON     PTCLDY    66  63  88 S5        30.09S
TRI CITIES     CLOUDY    72  63  73 N9        30.11R
YPSILANTI      MOCLDY    76  61  59 SW5       30.10R
$$
MIZ043>046-050>051-056>058-064>065-071>073-077>080-020200-
SOUTHWEST LOWER MICHIGAN

CITY           SKY/WX    TMP DP  RH WIND       PRES   REMARKS
BATTLE CREEK   PTCLDY    71  58  63 NE6       30.12S
BENTON HARBOR  PTCLDY    66  60  81 CALM      30.10R
BIG RAPIDS     CLEAR     69  62  76 SE5       30.09S
COLDWATER      MOCLDY    72  63  73 CALM      30.11S
HOLLAND        PTCLDY    70  60  70 CALM      30.10S
GRAND RAPIDS   PTCLDY    69  57  65 SW3       30.09F
KALAMAZOO      CLEAR     71  63  75 CALM      30.10S
MARSHALL       MOCLDY    68  56  65 CALM      30.11S
MUSKEGON       PTCLDY    67  59  75 SW5       30.10R
$$
MIZ016>042-020200-
NORTHERN LOWER MICHIGAN

CITY           SKY/WX    TMP DP  RH WIND       PRES   REMARKS
ALPENA         CLEAR     64  57  78 SE3       30.11R
BEAVER ISLAND  CLEAR     67  57  71 NE3       30.09R
BELLAIRE       CLOUDY    69  59  69 CALM      30.06S
CADILLAC       PTCLDY    65  59  81 CALM      30.10R
CHARLEVOIX     CLEAR     69  52  54 CALM      30.11R
FRANKFORT      MOCLDY    66  58  77 CALM      30.08S
GAYLORD        PTCLDY    71  53  52 NE6       30.11R
GRAYLING       MOCLDY    71  53  51 S6        30.12R
HARBOR SPRINGS PTCLDY    70  53  54 CALM      30.09R
HOUGHTON LAKE  CLOUDY    69  61  75 CALM      30.11R
MANISTEE       MOCLDY    68  57  68 CALM      30.08S
OSCODA         PTCLDY    66  63  88 CALM      30.10S
PELLSTON       CLEAR     69  54  58 NE5       30.10R
TRAVERSE CITY  MOCLDY    69  58  67 CALM      30.06R
$$
MIZ007>008-015-020200-
EASTERN UPPER MICHIGAN

CITY           SKY/WX    TMP DP  RH WIND       PRES   REMARKS
KINROSS        CLEAR     64  54  68 N5        30.11S
MACKINAC ISLAN CLEAR     64  52  64 NE9       30.10S
NEWBERRY       PTCLDY    64  50  62 N3        30.11S
S. S. MARIE    CLEAR     63  50  62 NW7       30.11R
$$
MIZ004>006-011>014-085-020200-
CENTRAL UPPER MICHIGAN

CITY           SKY/WX    TMP DP  RH WIND       PRES   REMARKS
MANISTIQUE     PTCLDY    64  56  76 CALM      30.08S
ESCANABA       PTCLDY    66  55  68 SE3       30.08S
MENOMINEE      MOCLDY    72  64  78 E5        30.06R
SAWYER-GWINN   MOCLDY    61  54  77 NE6       30.11S THUNDER
$$
MIZ001>003-009>011-084-020200-
WESTERN UPPER MICHIGAN

CITY           SKY/WX    TMP DP  RH WIND       PRES   REMARKS
IRON MOUNTAIN  PTCLDY    72  55  55 E6        30.07R
HOUGHTON       PTCLDY    60  51  72 E3        30.10S
COPPER HARBOR    N/A     62  51  67 SW8       30.09R
$$

ABBREVIATIONS USED IN REMARKS
   TC - TEMPERATURE IN CELSIUS
  WCI - WIND CHILL INDEX
   HX - HEAT INDEX
  VSB - VISIBILITY




USA.gov is the U.S. government's official web portal to all federal, state and local government web resources and services.